| time (UTC) | temp F | wind direction | speed knots | gust knots | rain 1hr in | rain 24hr in | rain mn in | humidity % | barometer mb |
| 20260505205139 | 48 | 5 | 7.0 | 11.3 | 0.00 | 0.00 | 0.00 | 79 | 1011.1 |
| 20260505204635 | 49 | 9 | 7.0 | 11.3 | 0.00 | 0.00 | 0.00 | 78 | 1011.1 |
| 20260505204145 | 49 | 344 | 7.8 | 11.3 | 0.00 | 0.00 | 0.00 | 78 | 1011.0 |
| 20260505203632 | 49 | 355 | 8.7 | 12.2 | 0.00 | 0.00 | 0.00 | 78 | 1011.0 |
| 20260505203133 | 49 | 350 | 7.8 | 12.2 | 0.00 | 0.00 | 0.00 | 78 | 1011.0 |
| 20260505202630 | 49 | 0 | 8.7 | 13.0 | 0.00 | 0.00 | 0.00 | 77 | 1011.0 |
| 20260505202129 | 50 | 0 | 8.7 | 13.0 | 0.00 | 0.00 | 0.00 | 77 | 1011.0 |
| 20260505201631 | 50 | 0 | 8.7 | 12.2 | 0.00 | 0.00 | 0.00 | 77 | 1011.0 |
| 20260505201129 | 50 | 18 | 8.7 | 13.0 | 0.00 | 0.00 | 0.00 | 76 | 1010.9 |
| 20260505200630 | 50 | 339 | 9.6 | 13.0 | 0.00 | 0.00 | 0.00 | 76 | 1010.9 |
| 20260505200131 | 50 | 12 | 8.7 | 13.0 | 0.00 | 0.00 | 0.00 | 76 | 1010.9 |
| 20260505195857 | 51 | 11 | 8.7 | 12.2 | 0.00 | 0.00 | 0.00 | 75 | 1010.9 |
| 20260505195130 | 51 | 5 | 8.7 | 13.0 | 0.00 | 0.00 | 0.00 | 74 | 1010.9 |
| 20260505194630 | 51 | 10 | 9.6 | 13.0 | 0.00 | 0.00 | 0.00 | 74 | 1010.9 |
| 20260505194129 | 51 | 350 | 9.6 | 13.0 | 0.00 | 0.00 | 0.00 | 73 | 1010.9 |
| 20260505193630 | 51 | 5 | 8.7 | 13.0 | 0.00 | 0.00 | 0.00 | 73 | 1010.9 |
| 20260505193130 | 51 | 0 | 8.7 | 12.2 | 0.00 | 0.00 | 0.00 | 74 | 1010.9 |
| 20260505192630 | 51 | 0 | 8.7 | 12.2 | 0.00 | 0.00 | 0.00 | 74 | 1010.6 |
| 20260505192132 | 51 | 355 | 8.7 | 13.0 | 0.00 | 0.00 | 0.00 | 74 | 1010.6 |
| 20260505191632 | 51 | 355 | 8.7 | 13.0 | 0.00 | 0.00 | 0.00 | 73 | 1010.6 |
| 20260505191131 | 51 | 0 | 7.8 | 11.3 | 0.00 | 0.00 | 0.00 | 73 | 1010.5 |
| 20260505190631 | 51 | 349 | 8.7 | 13.9 | 0.00 | 0.00 | 0.00 | 73 | 1010.5 |
| 20260505190132 | 51 | 355 | 8.7 | 13.9 | 0.00 | 0.00 | 0.00 | 73 | 1010.5 |
| 20260505185633 | 51 | 351 | 9.6 | 13.9 | 0.00 | 0.00 | 0.00 | 74 | 1010.4 |
| 20260505185132 | 52 | 355 | 9.6 | 13.9 | 0.00 | 0.00 | 0.00 | 73 | 1010.4 |
| 20260505184631 | 52 | 18 | 7.8 | 11.3 | 0.00 | 0.00 | 0.00 | 73 | 1010.4 |
| 20260505184131 | 52 | 346 | 7.8 | 13.9 | 0.00 | 0.00 | 0.00 | 72 | 1010.4 |
| 20260505183631 | 52 | 350 | 8.7 | 13.9 | 0.00 | 0.00 | 0.00 | 72 | 1010.4 |
| 20260505183133 | 53 | 342 | 8.7 | 13.9 | 0.00 | 0.00 | 0.00 | 72 | 1010.4 |
| 20260505182631 | 53 | 347 | 8.7 | 13.9 | 0.00 | 0.00 | 0.00 | 71 | 1010.4 |
| 20260505182131 | 53 | 337 | 8.7 | 13.0 | 0.00 | 0.00 | 0.00 | 70 | 1010.4 |
| 20260505181631 | 54 | 344 | 9.6 | 14.8 | 0.00 | 0.00 | 0.00 | 70 | 1010.4 |
| 20260505181400 | 54 | 339 | 8.7 | 14.8 | 0.00 | 0.00 | 0.00 | 70 | 1010.4 |
| 20260505180631 | 54 | 350 | 8.7 | 13.9 | 0.00 | 0.00 | 0.00 | 70 | 1010.4 |
| 20260505180132 | 54 | 331 | 9.6 | 13.9 | 0.00 | 0.00 | 0.00 | 69 | 1010.4 |
| 20260505175632 | 55 | 355 | 8.7 | 13.0 | 0.00 | 0.00 | 0.00 | 69 | 1010.4 |
| 20260505175132 | 55 | 334 | 8.7 | 13.0 | 0.00 | 0.00 | 0.00 | 70 | 1010.4 |
| 20260505174631 | 55 | 346 | 9.6 | 16.5 | 0.00 | 0.00 | 0.00 | 71 | 1010.4 |
| 20260505174131 | 55 | 329 | 9.6 | 16.5 | 0.00 | 0.00 | 0.00 | 71 | 1010.4 |
| 20260505173634 | 55 | 342 | 10.4 | 16.5 | 0.00 | 0.00 | 0.00 | 70 | 1010.4 |
| 20260505173131 | 55 | 355 | 8.7 | 16.5 | 0.00 | 0.00 | 0.00 | 70 | 1010.4 |
| 20260505172632 | 56 | 350 | 9.6 | 14.8 | 0.00 | 0.00 | 0.00 | 69 | 1010.4 |
| 20260505172131 | 56 | 341 | 10.4 | 18.2 | 0.00 | 0.00 | 0.00 | 69 | 1010.4 |
| 20260505171631 | 56 | 284 | 10.4 | 18.2 | 0.00 | 0.00 | 0.00 | 68 | 1010.4 |
| 20260505171131 | 56 | 336 | 9.6 | 15.6 | 0.00 | 0.00 | 0.00 | 69 | 1010.4 |
| 20260505170632 | 56 | 299 | 9.6 | 14.8 | 0.00 | 0.00 | 0.00 | 69 | 1010.4 |
| 20260505170129 | 56 | 355 | 9.6 | 14.8 | 0.00 | 0.00 | 0.00 | 69 | 1010.4 |
| 20260505165630 | 56 | 331 | 9.6 | 16.5 | 0.00 | 0.00 | 0.00 | 69 | 1010.5 |
| 20260505165130 | 56 | 332 | 11.3 | 18.2 | 0.00 | 0.00 | 0.00 | 70 | 1010.5 |
| 20260505164630 | 56 | 349 | 10.4 | 18.2 | 0.00 | 0.00 | 0.00 | 68 | 1010.5 |
| 20260505163629 | 57 | 336 | 9.6 | 16.5 | 0.00 | 0.00 | 0.00 | 68 | 1010.4 |
| 20260505163129 | 57 | 329 | 10.4 | 16.5 | 0.00 | 0.00 | 0.00 | 68 | 1010.4 |
| 20260505162852 | 57 | 306 | 9.6 | 15.6 | 0.00 | 0.00 | 0.00 | 67 | 1010.4 |
| 20260505162129 | 57 | 326 | 8.7 | 15.6 | 0.00 | 0.00 | 0.00 | 67 | 1010.4 |
| 20260505161629 | 57 | 339 | 8.7 | 15.6 | 0.00 | 0.00 | 0.00 | 67 | 1010.4 |
| 20260505161129 | 57 | 331 | 9.6 | 14.8 | 0.00 | 0.00 | 0.00 | 67 | 1010.5 |
| 20260505160630 | 57 | 339 | 9.6 | 15.6 | 0.00 | 0.00 | 0.00 | 67 | 1010.5 |
| 20260505160129 | 57 | 342 | 9.6 | 16.5 | 0.00 | 0.00 | 0.00 | 66 | 1010.5 |
| 20260505153130 | 58 | 339 | 10.4 | 17.4 | 0.00 | 0.00 | 0.00 | 65 | 1010.7 |
| 20260505152628 | 58 | 328 | 9.6 | 17.4 | 0.00 | 0.00 | 0.00 | 66 | 1010.9 |
| 20260505152129 | 58 | 315 | 9.6 | 16.5 | 0.00 | 0.00 | 0.00 | 65 | 1010.9 |
| 20260505151628 | 58 | 16 | 9.6 | 17.4 | 0.00 | 0.00 | 0.00 | 65 | 1010.9 |
| 20260505151129 | 58 | 323 | 9.6 | 17.4 | 0.00 | 0.00 | 0.00 | 66 | 1010.9 |
| 20260505150629 | 58 | 313 | 9.6 | 16.5 | 0.00 | 0.00 | 0.00 | 67 | 1010.9 |
| 20260505150129 | 58 | 325 | 9.6 | 15.6 | 0.00 | 0.00 | 0.00 | 67 | 1010.9 |
| 20260505140115 | 58 | 323 | 8.7 | 14.8 | 0.00 | 0.00 | 0.00 | 70 | 1010.9 |
| 20260505124603 | 55 | 302 | 10.4 | 15.6 | 0.00 | 0.00 | 0.00 | 76 | 1011.3 |
| 20260505124102 | 55 | 306 | 9.6 | 15.6 | 0.00 | 0.00 | 0.00 | 75 | 1011.4 |
| 20260505123603 | 56 | 290 | 9.6 | 15.6 | 0.00 | 0.00 | 0.00 | 74 | 1011.4 |
| 20260505123102 | 56 | 302 | 10.4 | 16.5 | 0.00 | 0.00 | 0.00 | 74 | 1011.4 |
| 20260505122602 | 55 | 279 | 11.3 | 16.5 | 0.00 | 0.00 | 0.00 | 77 | 1011.4 |
| 20260505122354 | 55 | 281 | 9.6 | 16.5 | 0.00 | 0.00 | 0.00 | 75 | 1011.4 |
| 20260505121602 | 56 | 270 | 8.7 | 13.9 | 0.00 | 0.00 | 0.00 | 76 | 1011.4 |
| 20260505121102 | 56 | 288 | 8.7 | 15.6 | 0.00 | 0.00 | 0.00 | 73 | 1011.4 |
| 20260505120836 | 56 | 286 | 9.6 | 15.6 | 0.00 | 0.00 | 0.00 | 75 | 1011.4 |
| 20260505115602 | 56 | 281 | 9.6 | 13.9 | 0.00 | 0.00 | 0.00 | 74 | 1011.4 |
| 20260505115053 | 56 | 286 | 8.7 | 13.0 | 0.00 | 0.00 | 0.00 | 74 | 1011.4 |
| 20260505114549 | 56 | 298 | 7.8 | 13.0 | 0.00 | 0.00 | 0.00 | 75 | 1011.4 |
| 20260505114050 | 55 | 282 | 7.8 | 11.3 | 0.00 | 0.00 | 0.00 | 75 | 1011.4 |
| 20260505113046 | 55 | 277 | 7.8 | 13.0 | 0.00 | 0.00 | 0.00 | 72 | 1011.4 |
| 20260505112547 | 57 | 332 | 7.8 | 13.0 | 0.00 | 0.00 | 0.00 | 69 | 1011.5 |
| 20260505112046 | 57 | 298 | 7.0 | 13.0 | 0.00 | 0.00 | 0.00 | 71 | 1011.5 |
| 20260505111545 | 57 | 313 | 6.1 | 11.3 | 0.00 | 0.00 | 0.00 | 69 | 1011.5 |
| 20260505111323 | 56 | 293 | 7.0 | 11.3 | 0.00 | 0.00 | 0.00 | 68 | 1011.5 |
| 20260505110545 | 56 | 309 | 6.1 | 12.2 | 0.00 | 0.00 | 0.00 | 71 | 1011.5 |
| 20260505101550 | 55 | 330 | 2.6 | 5.2 | 0.00 | 0.00 | 0.00 | 71 | 1011.9 |
| 20260505101312 | 54 | 9 | 3.5 | 6.1 | 0.00 | 0.00 | 0.00 | 68 | 1012.0 |
| 20260505100546 | 54 | 5 | 3.5 | 7.8 | 0.00 | 0.00 | 0.00 | 69 | 1012.0 |
| 20260505100343 | 53 | 18 | 4.3 | 7.8 | 0.00 | 0.00 | 0.00 | 68 | 1012.0 |
| 20260505095041 | 54 | 329 | 4.3 | 8.7 | 0.00 | 0.00 | 0.00 | 71 | 1012.0 |
| 20260505094535 | 55 | 0 | 3.5 | 8.7 | 0.00 | 0.00 | 0.00 | 70 | 1012.0 |
| 20260505094048 | 55 | 355 | 3.5 | 7.8 | 0.00 | 0.00 | 0.00 | 70 | 1012.0 |
| 20260505093538 | 55 | 355 | 4.3 | 8.7 | 0.00 | 0.00 | 0.00 | 71 | 1012.0 |
| 20260505093036 | 54 | 346 | 5.2 | 9.6 | 0.00 | 0.00 | 0.00 | 72 | 1012.0 |
| 20260505092531 | 54 | 350 | 5.2 | 9.6 | 0.00 | 0.00 | 0.00 | 75 | 1012.0 |
| 20260505092258 | 53 | 331 | 4.3 | 8.7 | 0.00 | 0.00 | 0.00 | 77 | 1012.0 |
| 20260505091529 | 52 | 5 | 4.3 | 7.8 | 0.00 | 0.00 | 0.00 | 77 | 1012.0 |
| 20260505091030 | 52 | 316 | 4.3 | 7.8 | 0.00 | 0.00 | 0.00 | 77 | 1012.0 |
| 20260505090524 | 52 | 355 | 5.2 | 8.7 | 0.00 | 0.00 | 0.00 | 77 | 1012.0 |
| 20260505090255 | 52 | 309 | 5.2 | 8.7 | 0.00 | 0.00 | 0.00 | 77 | 1012.0 |
| 20260505085748 | 53 | 338 | 4.3 | 8.7 | 0.00 | 0.00 | 0.00 | 76 | 1012.0 |
| 20260505085021 | 53 | 346 | 5.2 | 8.7 | 0.00 | 0.00 | 0.00 | 75 | 1012.0 |
| 20260505084522 | 53 | 314 | 5.2 | 9.6 | 0.00 | 0.00 | 0.00 | 73 | 1012.0 |
| 20260505084022 | 55 | 300 | 5.2 | 9.6 | 0.00 | 0.00 | 0.00 | 72 | 1012.0 |
| 20260505083524 | 55 | 323 | 4.3 | 8.7 | 0.00 | 0.00 | 0.00 | 72 | 1012.0 |
| 20260505083021 | 55 | 50 | 4.3 | 8.7 | 0.00 | 0.00 | 0.00 | 72 | 1012.0 |
| 20260505082522 | 55 | 43 | 4.3 | 8.7 | 0.00 | 0.00 | 0.00 | 72 | 1012.1 |
| 20260505082022 | 54 | 5 | 4.3 | 9.6 | 0.00 | 0.00 | 0.00 | 72 | 1012.1 |
| 20260505081522 | 54 | 345 | 5.2 | 9.6 | 0.00 | 0.00 | 0.00 | 73 | 1012.1 |
| 20260505081023 | 54 | 331 | 5.2 | 9.6 | 0.00 | 0.00 | 0.00 | 75 | 1012.1 |
| 20260505080522 | 53 | 26 | 5.2 | 9.6 | 0.00 | 0.00 | 0.00 | 75 | 1012.1 |
| 20260505080020 | 53 | 12 | 6.1 | 9.6 | 0.00 | 0.00 | 0.00 | 75 | 1012.1 |
| 20260505075509 | 53 | 355 | 5.2 | 9.6 | 0.00 | 0.00 | 0.00 | 74 | 1012.2 |
| 20260505075010 | 53 | 330 | 3.5 | 7.8 | 0.00 | 0.00 | 0.00 | 75 | 1012.2 |
| 20260505074509 | 53 | 51 | 4.3 | 8.7 | 0.00 | 0.00 | 0.00 | 76 | 1012.2 |
| 20260505074011 | 53 | 39 | 4.3 | 8.7 | 0.00 | 0.00 | 0.00 | 75 | 1012.2 |
| 20260505073510 | 53 | 328 | 4.3 | 8.7 | 0.00 | 0.00 | 0.00 | 76 | 1012.2 |
| 20260505073010 | 52 | 347 | 6.1 | 9.6 | 0.00 | 0.00 | 0.00 | 75 | 1012.2 |
| 20260505072510 | 52 | 336 | 6.1 | 9.6 | 0.00 | 0.00 | 0.00 | 75 | 1012.3 |
| 20260505071510 | 52 | 351 | 6.1 | 10.4 | 0.00 | 0.00 | 0.00 | 76 | 1012.3 |
| 20260505071010 | 52 | 333 | 5.2 | 10.4 | 0.00 | 0.00 | 0.00 | 76 | 1012.4 |
| 20260505070508 | 51 | 9 | 6.1 | 10.4 | 0.00 | 0.00 | 0.00 | 76 | 1012.4 |
| 20260505070012 | 51 | 346 | 6.1 | 10.4 | 0.00 | 0.00 | 0.00 | 77 | 1012.4 |
| 20260505065509 | 51 | 348 | 4.3 | 9.6 | 0.00 | 0.00 | 0.00 | 78 | 1012.4 |
| 20260505065011 | 51 | 0 | 4.3 | 7.8 | 0.00 | 0.00 | 0.00 | 79 | 1012.4 |
| 20260505064508 | 51 | 0 | 3.5 | 6.1 | 0.00 | 0.00 | 0.00 | 81 | 1012.4 |
| 20260505064009 | 51 | 15 | 4.3 | 7.0 | 0.00 | 0.00 | 0.00 | 80 | 1012.4 |
| 20260505063507 | 50 | 0 | 4.3 | 7.0 | 0.00 | 0.00 | 0.00 | 81 | 1012.4 |
| 20260505063011 | 50 | 0 | 4.3 | 7.0 | 0.00 | 0.00 | 0.00 | 81 | 1012.4 |
| 20260505062507 | 50 | 5 | 2.6 | 6.1 | 0.00 | 0.00 | 0.00 | 83 | 1012.4 |
| 20260505062009 | 49 | 30 | 2.6 | 5.2 | 0.00 | 0.00 | 0.00 | 84 | 1012.4 |
| 20260505061508 | 49 | 355 | 3.5 | 5.2 | 0.00 | 0.00 | 0.00 | 85 | 1012.4 |
| 20260505061013 | 49 | 17 | 3.5 | 5.2 | 0.00 | 0.00 | 0.00 | 85 | 1012.3 |
| 20260505060506 | 48 | 16 | 2.6 | 4.3 | 0.00 | 0.00 | 0.00 | 86 | 1012.3 |
| 20260505060013 | 48 | 30 | 2.6 | 4.3 | 0.00 | 0.00 | 0.00 | 86 | 1012.3 |
| 20260505055502 | 48 | 30 | 1.7 | 4.3 | 0.00 | 0.00 | 0.00 | 87 | 1012.2 |
| 20260505055001 | 47 | 30 | 1.7 | 3.5 | 0.00 | 0.00 | 0.00 | 88 | 1012.2 |
| 20260505054727 | 47 | 30 | 2.6 | 4.3 | 0.00 | 0.00 | 0.00 | 89 | 1012.2 |
| 20260505054001 | 46 | 30 | 3.5 | 5.2 | 0.00 | 0.00 | 0.00 | 89 | 1012.2 |
| 20260505053503 | 46 | 30 | 3.5 | 5.2 | 0.00 | 0.00 | 0.00 | 90 | 1012.2 |
| 20260505053002 | 46 | 30 | 3.5 | 5.2 | 0.00 | 0.00 | 0.00 | 91 | 1012.2 |
| 20260505052732 | 45 | 40 | 3.5 | 5.2 | 0.00 | 0.00 | 0.00 | 92 | 1012.0 |
| 20260505052009 | 44 | 40 | 2.6 | 4.3 | 0.00 | 0.00 | 0.00 | 93 | 1012.0 |
| 20260505051455 | 44 | 21 | 1.7 | 4.3 | 0.00 | 0.00 | 0.00 | 93 | 1012.0 |
| 20260505050955 | 43 | 16 | 1.7 | 3.5 | 0.00 | 0.00 | 0.00 | 93 | 1012.0 |
| 20260505050719 | 42 | 355 | 1.7 | 2.6 | 0.00 | 0.00 | 0.00 | 93 | 1012.0 |
| 20260505041447 | 39 | 355 | 1.7 | 2.6 | 0.00 | 0.00 | 0.00 | 93 | 1012.0 |
| 20260505040947 | 39 | 355 | 1.7 | 2.6 | 0.00 | 0.00 | 0.00 | 93 | 1012.0 |
| 20260505040444 | 39 | 355 | 1.7 | 2.6 | 0.00 | 0.00 | 0.00 | 93 | 1012.0 |
| 20260505035942 | 39 | 355 | 1.7 | 3.5 | 0.00 | 0.00 | 0.00 | 93 | 1012.0 |
| 20260505035442 | 39 | 355 | 2.6 | 3.5 | 0.00 | 0.00 | 0.00 | 93 | 1012.0 |
| 20260505034938 | 39 | 355 | 2.6 | 3.5 | 0.00 | 0.00 | 0.00 | 93 | 1012.0 |
| 20260505034712 | 39 | 355 | 2.6 | 3.5 | 0.00 | 0.00 | 0.00 | 93 | 1012.0 |
| 20260505033934 | 39 | 355 | 2.6 | 3.5 | 0.00 | 0.00 | 0.00 | 93 | 1012.0 |
| 20260505033434 | 39 | 355 | 1.7 | 3.5 | 0.00 | 0.00 | 0.00 | 93 | 1012.0 |
| 20260505033209 | 39 | 355 | 1.7 | 2.6 | 0.00 | 0.00 | 0.00 | 92 | 1012.0 |
| 20260505032432 | 39 | 355 | 1.7 | 2.6 | 0.00 | 0.00 | 0.00 | 92 | 1012.0 |
| 20260505031930 | 39 | 355 | 2.6 | 3.5 | 0.00 | 0.00 | 0.00 | 92 | 1012.0 |
| 20260505031431 | 39 | 355 | 2.6 | 3.5 | 0.00 | 0.00 | 0.00 | 92 | 1012.0 |
| 20260505031203 | 39 | 355 | 2.6 | 4.3 | 0.00 | 0.00 | 0.00 | 92 | 1012.0 |
| 20260505030656 | 40 | 355 | 3.5 | 4.3 | 0.00 | 0.00 | 0.00 | 92 | 1012.0 |
| 20260505025925 | 40 | 355 | 3.5 | 4.3 | 0.00 | 0.00 | 0.00 | 92 | 1012.3 |
| 20260505025414 | 40 | 355 | 2.6 | 3.5 | 0.00 | 0.00 | 0.00 | 92 | 1012.3 |
| 20260505024915 | 40 | 355 | 2.6 | 3.5 | 0.00 | 0.00 | 0.00 | 92 | 1012.3 |
| 20260505024417 | 40 | 355 | 1.7 | 3.5 | 0.00 | 0.00 | 0.00 | 92 | 1012.3 |
| 20260505023915 | 40 | 355 | 2.6 | 3.5 | 0.00 | 0.00 | 0.00 | 92 | 1012.3 |
| 20260505023415 | 40 | 355 | 2.6 | 3.5 | 0.00 | 0.00 | 0.00 | 92 | 1012.3 |
| 20260505022913 | 40 | 355 | 2.6 | 3.5 | 0.00 | 0.00 | 0.00 | 92 | 1012.4 |
| 20260505022410 | 40 | 355 | 2.6 | 3.5 | 0.00 | 0.00 | 0.00 | 92 | 1012.4 |
| 20260505022153 | 40 | 355 | 2.6 | 4.3 | 0.00 | 0.00 | 0.00 | 92 | 1012.4 |
| 20260505021410 | 40 | 355 | 3.5 | 4.3 | 0.00 | 0.00 | 0.00 | 92 | 1012.5 |
| 20260505020904 | 40 | 355 | 2.6 | 4.3 | 0.00 | 0.00 | 0.00 | 92 | 1012.5 |
| 20260505020405 | 40 | 317 | 2.6 | 3.5 | 0.00 | 0.00 | 0.00 | 92 | 1012.5 |
| 20260505015901 | 40 | 317 | 2.6 | 4.3 | 0.00 | 0.00 | 0.00 | 92 | 1012.5 |
| 20260505015401 | 40 | 317 | 2.6 | 4.3 | 0.00 | 0.00 | 0.00 | 92 | 1012.5 |
| 20260505014902 | 41 | 317 | 2.6 | 3.5 | 0.00 | 0.00 | 0.00 | 91 | 1012.5 |
| 20260505014403 | 41 | 317 | 2.6 | 3.5 | 0.00 | 0.00 | 0.00 | 92 | 1012.5 |
| 20260505013902 | 41 | 317 | 1.7 | 3.5 | 0.00 | 0.00 | 0.00 | 92 | 1012.5 |
| 20260505013402 | 41 | 317 | 1.7 | 2.6 | 0.00 | 0.00 | 0.00 | 92 | 1012.5 |
| 20260505012902 | 41 | 317 | 1.7 | 2.6 | 0.00 | 0.00 | 0.00 | 92 | 1012.6 |
| 20260505012416 | 41 | 317 | 1.7 | 2.6 | 0.00 | 0.00 | 0.00 | 92 | 1012.6 |
| 20260505011402 | 41 | 317 | 1.7 | 2.6 | 0.00 | 0.00 | 0.00 | 91 | 1012.8 |
| 20260505010902 | 41 | 317 | 0.9 | 1.7 | 0.00 | 0.00 | 0.00 | 91 | 1012.8 |
| 20260505010401 | 41 | 317 | 0.9 | 2.6 | 0.00 | 0.00 | 0.00 | 91 | 1012.8 |
| 20260505005901 | 41 | 317 | 1.7 | 2.6 | 0.00 | 0.00 | 0.00 | 91 | 1012.9 |
| 20260505005400 | 40 | 317 | 1.7 | 1.7 | 0.00 | 0.00 | 0.00 | 91 | 1012.9 |
| 20260505004900 | 40 | 317 | 1.7 | 2.6 | 0.00 | 0.00 | 0.00 | 91 | 1012.9 |
| 20260505004400 | 40 | 317 | 1.7 | 2.6 | 0.00 | 0.00 | 0.00 | 91 | 1013.0 |
| 20260505003900 | 40 | 317 | 1.7 | 2.6 | 0.00 | 0.00 | 0.00 | 91 | 1013.0 |
| 20260505003400 | 40 | 317 | 1.7 | 2.6 | 0.00 | 0.00 | 0.00 | 91 | 1013.0 |
| 20260505002900 | 40 | 317 | 1.7 | 2.6 | 0.00 | 0.00 | 0.00 | 91 | 1013.0 |
| 20260505002400 | 40 | 317 | 1.7 | 2.6 | 0.00 | 0.00 | 0.00 | 91 | 1013.0 |
| 20260505001901 | 40 | 317 | 1.7 | 2.6 | 0.00 | 0.00 | 0.00 | 91 | 1013.0 |
| 20260505001638 | 40 | 317 | 1.7 | 2.6 | 0.00 | 0.00 | 0.00 | 91 | 1013.0 |
| 20260505000902 | 40 | 317 | 0.9 | 1.7 | 0.00 | 0.00 | 0.00 | 90 | 1013.0 |
| 20260505000400 | 40 | 317 | 0.9 | 1.7 | 0.00 | 0.00 | 0.00 | 90 | 1013.0 |
| 20260505000153 | 40 | 317 | 1.7 | 2.6 | 0.00 | 0.00 | 0.00 | 90 | 1013.0 |
| 20260504235400 | 40 | 317 | 1.7 | 2.6 | 0.00 | 0.00 | 0.00 | 90 | 1013.0 |
| 20260504234900 | 40 | 317 | 0.9 | 2.6 | 0.00 | 0.00 | 0.00 | 90 | 1013.0 |
| 20260504234632 | 40 | 317 | 0.9 | 1.7 | 0.00 | 0.00 | 0.00 | 90 | 1013.1 |
| 20260504233901 | 0 | 317 | 0.9 | 2.6 | 0.00 | 0.00 | 0.00 | 1013.1 | |
| 20260504233400 | 0 | 317 | 0.9 | 2.6 | 0.00 | 0.00 | 0.00 | 1013.1 | |
| 20260504232854 | 0 | 317 | 0.0 | 0.9 | 0.00 | 0.00 | 0.00 | 1013.3 | |
| 20260504232347 | 0 | 317 | 0.0 | 0.9 | 0.00 | 0.00 | 0.00 | 1013.3 | |
| 20260504231842 | 0 | 317 | 0.0 | 0.9 | 0.00 | 0.00 | 0.00 | 1013.3 | |
| 20260504231341 | 0 | 317 | 0.0 | 0.9 | 0.00 | 0.00 | 0.00 | 1013.2 | |
| 20260504231119 | 0 | 317 | 0.9 | 1.7 | 0.00 | 0.00 | 0.00 | 1013.2 | |
| 20260504230336 | 0 | 317 | 0.9 | 1.7 | 0.00 | 0.00 | 0.00 | 1013.2 | |
| 20260504225836 | 0 | 317 | 0.0 | 1.7 | 0.00 | 0.00 | 0.00 | 1013.3 | |
| 20260504225337 | 0 | 317 | 0.9 | 1.7 | 0.00 | 0.00 | 0.00 | 1013.3 | |
| 20260504224834 | 0 | 317 | 0.9 | 1.7 | 0.00 | 0.00 | 0.00 | 1013.3 | |
| 20260504224335 | 0 | 317 | 0.9 | 1.7 | 0.00 | 0.00 | 0.00 | 1013.2 | |
| 20260504223832 | 0 | 317 | 0.9 | 1.7 | 0.00 | 0.00 | 0.00 | 1013.2 | |
| 20260504223330 | 0 | 317 | 0.9 | 1.7 | 0.00 | 0.00 | 0.00 | 1013.2 | |
| 20260504222829 | 0 | 317 | 0.9 | 1.7 | 0.00 | 0.00 | 0.00 | 1013.2 | |
| 20260504222329 | 0 | 317 | 0.9 | 1.7 | 0.00 | 0.00 | 0.00 | 1013.2 | |
| 20260504221830 | 0 | 317 | 0.9 | 1.7 | 0.00 | 0.00 | 0.00 | 1013.2 | |
| 20260504221330 | 0 | 317 | 0.9 | 1.7 | 0.00 | 0.00 | 0.00 | 1013.1 | |
| 20260504220829 | 0 | 317 | 0.0 | 1.7 | 0.00 | 0.00 | 0.00 | 1013.1 | |
| 20260504220337 | 0 | 317 | 0.9 | 3.5 | 0.00 | 0.00 | 0.00 | 1013.1 | |
| 20260504215330 | 0 | 317 | 2.6 | 4.3 | 0.00 | 0.00 | 0.00 | 1013.1 | |
| 20260504214829 | 0 | 317 | 2.6 | 4.3 | 0.00 | 0.00 | 0.00 | 1013.1 | |
| 20260504214331 | 0 | 317 | 2.6 | 4.3 | 0.00 | 0.00 | 0.00 | 1013.2 | |
| 20260504213830 | 0 | 316 | 2.6 | 4.3 | 0.00 | 0.00 | 0.00 | 1013.2 | |
| 20260504213603 | 43 | 316 | 2.6 | 3.5 | 0.00 | 0.00 | 0.00 | 87 | 1013.2 |
| 20260504212830 | 43 | 316 | 2.6 | 4.3 | 0.00 | 0.00 | 0.00 | 87 | 1013.4 |
| 20260504212331 | 43 | 316 | 2.6 | 4.3 | 0.00 | 0.00 | 0.00 | 87 | 1013.4 |
| 20260504211829 | 43 | 316 | 2.6 | 4.3 | 0.00 | 0.00 | 0.00 | 87 | 1013.4 |
| 20260504211329 | 43 | 316 | 2.6 | 4.3 | 0.00 | 0.00 | 0.00 | 87 | 1013.4 |
| 20260504210830 | 43 | 316 | 2.6 | 4.3 | 0.00 | 0.00 | 0.00 | 87 | 1013.4 |
| 20260504210330 | 43 | 327 | 3.5 | 6.1 | 0.00 | 0.00 | 0.00 | 87 | 1013.4 |
| 20260504210140 | 43 | 324 | 3.5 | 6.1 | 0.00 | 0.00 | 0.00 | 87 | 1013.5 |